GPS BIIR-11 (PRN 19)

Last updated on Wed Jul 16 2025 00:03:15 GMT+0000 (Coordinated Universal Time)

1 28190U 04009A 25196.36646749 -.00000033 00000+0 00000+0 0 9996 2 28190 55.1121 289.2777 0106564 162.7227 212.2375 2.00566435156193
UTC large
Height (km)
Speed (km/s)
/
Latitude / Longitude
Inclination (degrees)
Orbital Period (minutes)
Azimuth
Elevation
Range (km)
Doppler Factor

Next 0 passes for location: London (51.5072 / 0.1276)

Sorry there are no passes over London.